Other Surface Observations
Issued by NWS

Home | Current Version | Previous Version | Text Only | Print | Product List | Glossary On
Versions: 1 2 3 4 5 6 7 8 9 10 11 12 13 14 15 16 17 18 19 20 21 22 23 24 25 26 27 28 29 30 31 32 33 34 35 36 37 38 39 40 41 42 43 44 45 46 47 48 49 50
623
SXUS52 KTAE 211118
OSOTAE
OSOTAE
North Florida/South Alabama/Southwest Georgia Weather Roundup
National Weather Service Tallahassee Florida
700 AM EDT FRI JUL 21 2017

Note: "fair" indicates few or no clouds below 12,000 feet with no
significant weather and/or obstructions to visibility.

!FLZ017-115-028-034-025-211200
...North Florida...

CITY           SKY/WX    TMP DP  RH WIND       PRES   REMARKS
TALLAHASSEE    PTCLDY    74  73  97 CALM      30.01R
APALACHICOLA   MOCLDY    77  77 100 CALM      30.00R
PERRY          CLEAR     73  72  96 CALM      30.03R
CROSS CITY     CLEAR     71  70  97 E3        30.07R
JACKSONVILLE   PTCLDY    71  70  96 CALM      30.02R
$$

!FLZ112-006-005-002-011-211200
...Florida Panhandle...

CITY           SKY/WX    TMP DP  RH WIND       PRES   REMARKS
MARIANNA       PTCLDY    77  76  96 CALM      30.00R
BONIFAY        NOT AVBL
PANAMA CITY NW FAIR      77  75  93 NE3       30.00R
TYNDALL AFB    MOCLDY    78  77  96 NE5       30.01R
TYND DRONE APT FAIR      79  79 100 NE3       30.01R THUNDER
DE FUNIAK SPR  FAIR      74  73  98 CALM      30.02R
EGLIN AFB      MOCLDY    77  75  91 CALM      30.00R
DESTIN         CLOUDY    82  77  84 CALM      29.99R HX  90
HURLBURT       MOCLDY    77  77 100 N3        29.98R
CRESTVIEW      MOCLDY    74  72  93 CALM      30.02R
PENSACOLA      PTCLDY    81  76  84 CALM      30.00R
$$

!ALZ063-066-211200
...South Alabama...

CITY           SKY/WX    TMP DP  RH WIND       PRES   REMARKS
DOTHAN         PTCLDY    77  75  93 CALM      30.05R
OZARK CAIRNS   PTCLDY    75  73  96 CALM      30.02R FOG
FT RUCKER HELI MOCLDY    73  72  97 CALM      30.02R
RUCKER HELI 3  FAIR      76  72  89 CALM      30.02R
RUCKER HELI 2  FAIR      74  73  98 CALM      30.01R FOG
FLORALA APT    MOCLDY    75  71  87 CALM      30.04R
ANDALUSIA      CLOUDY    78  74  87 CALM      30.02R
TROY           CLEAR     72  72 100 CALM      30.03R FOG
EUFALA         FAIR      74  72  93 CALM      30.01R
MOBILE         PTCLDY    78  75  90 W5        30.03R
$$

!GAZ120>161-211200
...Southwest and South Central Georgia...

CITY           SKY/WX    TMP DP  RH WIND       PRES   REMARKS
THOMASVILLE    FAIR      73  73 100 CALM      30.03R
BAINBRIDGE     CLEAR     77  77 100 CALM      30.01R
MOODY AFB      CLEAR     72  70  94 CALM      30.01R
VALDOSTA       CLEAR     70  70 100 CALM      30.02R FOG
MOULTRIE       CLEAR     73  72  94 CALM      30.03R
BLAKELY        CLEAR     75  73  94 CALM      30.02R FOG
ALBANY         CLEAR     75  75 100 S3        30.03R
TIFTON         FAIR      74  74 100 CALM      30.02R
FITZGERALD     FAIR      75  74  97 CALM      30.04R
CORDELE        FAIR      80  72  75 CALM      30.03R
AMERICUS       FAIR      73  73 100 CALM      30.04R
HOMERVILLE     FAIR      72  72 100 SE3       30.03R
$$

!GMZ750-755-770-775-211200
...Coastal and Buoy Obs...

STATION/POSITION TIME  TEMP    WIND        PRES    VSBY  WAVE
                       AIR SEA DIR/SP/G                  HT/PER
                 (UTC) (F)     (DEG/KT/KT) (MB)    (MI)  (FT/S)
KEATON BEACH     1100   73      80/  5/  5 1016.3R
CEDAR KEY        1100   79     100/  8/  9 1017.2R
C TOWER          NOT AVBL
APALACHICOLA BUO 1050   83 87  230/  4/  6 1016.2R         1/ 7
PANAMA CITY BUOY 1050   83 85   CALM  /  2 1015.9R         1
MOBILE BUOY      1100   84 85  260/  6/  8 1016.3
ORANGE BCH AL BU 1050   85 87  310/  6/  8 1015.5R         1
$$




USA.gov is the U.S. government's official web portal to all federal, state and local government web resources and services.